Location: 22
(39.7117°N, 89.5929°W)
Time: 10:18:00
(UTC-05:00)

Transit 2A - Pass Details

Date: 08 August 2024
Orbit: 590 x 961 km, 66.7° (Epoch: 13 September)

Event Time Altitude Azimuth Distance (km) Brightness Sun altitude
Rises 06:32:12 0° 266° (W) 3,326 8.6 4.2°
Reaches altitude 10° 06:35:50 10° 291° (WNW) 2,479 8.2 4.8°
Maximum altitude 06:38:52 14° 323° (NW) 2,242 8.2 5.4°
Drops below altitude 10° 06:42:02 10° 355° (N) 2,600 8.9 6.0°
Sets 06:46:01 0° 19° (NNE) 3,601 10.0 6.7°
